{"data":{"norad_id":59343,"epoch":"2026-05-25T04:20:17.390976Z","epoch_age_seconds":66332,"freshness":"FRESH","line1":"1 59343U 24058A   26145.18075684 -.00000001  00000+0  22990-4 0  9997","line2":"2 59343  98.8199 153.3565 0002036  87.3506 272.7899 14.13324981111494","mean_motion":14.13324981,"eccentricity":0.0002036,"inclination_deg":98.8199,"raan_deg":153.3565,"arg_perigee_deg":87.3506,"mean_anomaly_deg":272.7899,"bstar":2.299e-5,"rev_number":11149,"period_min":101.88739457369,"perigee_km":846.54472892684,"apogee_km":849.48721841772,"semimajor_km":7226.1529736723,"source":"CELESTRAK","updated_at":"2026-05-25T13:38:01.351947Z"}}